This demonstration page uses our WeatherBlox Daily Observations layout. Learn more.

Left ArrowRight Arrow

39.51506, -84.39828

Hourly Observations for May 23, 2017

Temp ( °F °C ) Dew Point ( °F °C ) Humidity (%) Winds ( mph kmh ) Pressure ( in mb ) Visibility ( mi km ) Precip ( " mm )
12:15 am 00:15 Clear 55 12.5 48 8.8 78 78 N N/A 30.03 1017 10 16 N/A
12:35 am 00:35 Clear 55 12.5 48 9 79 79 N N/A 30.00 1016 10 16 N/A
12:55 am 00:55 Clear 55 12.5 48 9.1 80 80 N N/A 30.00 1016 10 16 N/A
1:15 am 01:15 Clear 55 12.5 49 9.2 80 80 N N/A 30.00 1016 10 16 N/A
1:35 am 01:35 Clear 55 12.5 49 9.3 81 81 N N/A 30.00 1016 10 16 N/A
1:55 am 01:55 Clear 55 12.5 49 9.2 80 80 N N/A 30.00 1016 10 16 N/A
2:15 am 02:15 Clear 54 12.4 49 9.3 82 82 N N/A 30.00 1016 10 16 N/A
2:35 am 02:35 Clear 53 11.7 47 8.5 81 81 N N/A 29.97 1015 10 16 N/A
2:55 am 02:55 Clear 52 11 46 8 82 82 N N/A 29.97 1015 10 16 N/A
3:15 am 03:15 Clear 52 11 46 8 82 82 N N/A 29.97 1015 10 16 N/A
3:35 am 03:35 Clear 52 11 46 8 82 82 N N/A 29.94 1014 10 16 N/A
3:55 am 03:55 Clear 51 10.4 45 7.4 82 82 N N/A 29.94 1014 10 16 N/A
4:15 am 04:15 Clear 50 10 45 7.2 83 83 N N/A 29.94 1014 10 16 N/A
4:35 am 04:35 Clear 49 9.6 44 6.8 83 83 N N/A 29.94 1014 10 16 N/A
4:55 am 04:55 Clear 49 9.6 44 6.8 83 83 N N/A 29.91 1013 10 16 N/A
5:15 am 05:15 Clear 49 9.6 44 6.8 83 83 N N/A 29.91 1013 10 16 N/A
5:35 am 05:35 Clear 49 9.6 44 6.8 83 83 N N/A 29.91 1013 10 16 N/A
5:55 am 05:55 Clear 49 9.6 44 6.8 83 83 N 3 6 29.91 1013 10 16 N/A
6:15 am 06:15 Clear 49 9.6 44 6.8 83 83 N 3 6 29.91 1013 10 16 N/A
6:35 am 06:35 Sunny 49 9.6 44 6.8 83 83 N N/A 29.91 1013 10 16 N/A
6:55 am 06:55 Sunny 51 10.3 45 7.4 82 82 N N/A 29.91 1013 10 16 N/A
7:15 am 07:15 Sunny 54 12.1 48 8.9 81 81 N N/A 29.91 1013 10 16 N/A
7:35 am 07:35 Sunny 55 12.5 49 9.2 80 80 N N/A 29.94 1014 10 16 N/A
7:55 am 07:55 Sunny 55 12.5 48 9.1 80 80 N N/A 29.91 1013 10 16 N/A
8:15 am 08:15 Sunny 56 13.5 50 10.1 80 80 N N/A 29.91 1013 10 16 N/A
8:35 am 08:35 Sunny 58 14.7 51 10.5 76 76 N N/A 29.88 1012 10 16 N/A
8:55 am 08:55 Sunny 60 15.3 51 10.5 73 73 N 3 6 29.88 1012 10 16 N/A
9:15 am 09:15 Sunny 61 16 51 10.3 69 69 N N/A 29.85 1011 10 16 N/A
9:35 am 09:35 Sunny 62 16.6 51 10.6 68 68 N N/A 29.85 1011 10 16 N/A
9:55 am 09:55 Sunny 66 19 51 10.3 57 57 E 6 9 29.85 1011 10 16 N/A
10:15 am 10:15 Sunny 69 20.8 48 8.9 47 47 E 8 13 29.85 1011 10 16 N/A
10:35 am 10:35 Sunny 69 20.8 47 8.1 44 44 ENE 7 11 29.83 1010 10 16 N/A
10:55 am 10:55 Sunny 69 20.8 46 8 44 44 E 8 13 29.83 1010 10 16 N/A
11:15 am 11:15 Sunny 69 20.8 46 8 44 44 E 8 13 29.83 1010 10 16 N/A
11:35 am 11:35 Sunny 69 20.8 46 7.7 43 43 ESE 3 6 29.83 1010 10 16 N/A
11:55 am 11:55 Sunny 69 20.8 47 8.2 44 44 NNE 3 6 29.83 1010 10 16 N/A
12:15 pm 12:15 Sunny 69 20.8 45 7.3 42 42 NE 8 13 29.80 1009 10 16 N/A
12:35 pm 12:35 Sunny 71 21.9 43 6.3 36 36 NE 7 11 29.80 1009 10 16 N/A
12:55 pm 12:55 Sunny 72 22.3 45 7 37 37 E 3 6 29.80 1009 10 16 N/A
1:15 pm 13:15 Sunny 74 23.4 45 7.4 36 36 NE 3 6 29.80 1009 10 16 N/A
1:35 pm 13:35 Sunny 74 23.6 45 7.4 35 35 NE 3 6 29.77 1008 10 16 N/A
1:55 pm 13:55 Sunny 74 23.6 41 5 30 30 N N/A 29.77 1008 10 16 N/A
2:15 pm 14:15 Sunny 74 23.6 44 6.7 34 34 ENE 9 15 29.77 1008 10 16 N/A
2:35 pm 14:35 Sunny 74 23.6 42 5.8 32 32 E 3 6 29.74 1007 10 16 N/A
2:55 pm 14:55 Sunny 74 23.6 43 6.1 32 32 E 7 11 29.74 1007 10 16 N/A
3:15 pm 15:15 Sunny 74 23.6 44 6.6 34 34 E 3 6 29.74 1007 10 16 N/A
3:35 pm 15:35 Sunny 74 23.6 41 5 30 30 ENE 7 11 29.71 1006 10 16 N/A
3:55 pm 15:55 Sunny 74 23.6 38 3.5 27 27 N N/A 29.71 1006 10 16 N/A
4:15 pm 16:15 Sunny 74 23.6 39 3.8 28 28 SE 3 6 29.71 1006 7 11 N/A
4:35 pm 16:35 Partly Cloudy 74 23.6 37 2.5 25 25 N N/A 29.71 1006 10 16 N/A
4:55 pm 16:55 Partly Cloudy 74 23.6 36 2 24 24 ENE 3 6 29.71 1006 10 16 N/A
5:15 pm 17:15 Partly Cloudy 74 23.6 36 2.1 24 24 SE 3 6 29.71 1006 10 16 N/A
5:35 pm 17:35 Sunny 74 23.6 37 2.9 26 26 ESE 3 6 29.71 1006 10 16 N/A
5:55 pm 17:55 Sunny 74 23.6 47 8.5 38 38 NE 3 6 29.68 1005 10 16 N/A
6:15 pm 18:15 Partly Cloudy 74 23.6 42 5.5 31 31 N N/A 29.68 1005 10 16 N/A
6:35 pm 18:35 Mostly Cloudy 74 23.6 41 4.9 30 30 E 5 7 29.68 1005 10 16 N/A
6:55 pm 18:55 Partly Cloudy 74 23.6 37 3 26 26 E 5 7 29.68 1005 10 16 N/A
7:15 pm 19:15 Partly Cloudy 74 23.6 43 5.9 32 32 N N/A 29.68 1005 10 16 N/A
7:35 pm 19:35 Mostly Cloudy 71 21.8 50 9.9 47 47 NE 3 6 29.68 1005 10 16 N/A
7:55 pm 19:55 Mostly Cloudy 72 22.1 54 12.2 54 54 N N/A 29.68 1005 10 16 N/A
8:15 pm 20:15 Mostly Cloudy 69 20.8 56 13.2 62 62 N N/A 29.68 1005 10 16 N/A
8:35 pm 20:35 Mostly Cloudy 69 20.8 55 12.7 60 60 N N/A 29.68 1005 10 16 N/A
8:55 pm 20:55 Mostly Cloudy 69 20.8 53 11.8 57 57 N N/A 29.68 1005 10 16 N/A
9:15 pm 21:15 Partly Cloudy 70 21 46 7.7 42 42 ESE 3 6 29.65 1004 10 16 N/A
9:35 pm 21:35 Clear 69 20.6 55 12.5 60 60 N N/A 29.65 1004 10 16 N/A
9:55 pm 21:55 Clear 64 18 55 12.9 72 72 N N/A 29.65 1004 10 16 N/A
10:15 pm 22:15 Clear 64 18 55 12.8 72 72 N N/A 29.65 1004 10 16 N/A
10:35 pm 22:35 Clear 64 18 55 13 73 73 N N/A 29.65 1004 10 16 N/A
10:55 pm 22:55 Clear 63 17.3 55 12.9 76 76 N N/A 29.68 1005 10 16 N/A
11:15 pm 23:15 Clear 67 19.5 54 12.4 64 64 SE 3 6 29.65 1004 10 16 N/A
11:35 pm 23:35 Clear 69 20.8 53 11.8 57 57 SE 6 9 29.65 1004 10 16 N/A
11:55 pm 23:55 Clear 69 20.8 55 12.5 59 59 SE 6 9 29.65 1004 10 16 N/A

Powered by AerisWeather